Ontario, CA

5:18 AM PST on February 08, 2016 (GMT -0800)
Ontario International

Weather History for KONT - November, 2013

Change the Weather History Date:

Thursday, November 21, 2013

  Actual Average Record
Temperature  
Mean Temperature 59 °F 58 °F  
Max Temperature 62 °F 71 °F 88 °F (2002)
Min Temperature 56 °F 45 °F 42 °F (2011)
Degree Days  
Heating Degree Days 6 7  
Month to date heating degree days 53 100  
Since 1 July heating degree days 96 145  
Cooling Degree Days 0 0  
Month to date cooling degree days 25 21  
Year to date cooling degree days 1997 1704  
Growing Degree Days 8 (Base 50)    
Moisture  
Dew Point 54 °F    
Average Humidity 86    
Maximum Humidity 100    
Minimum Humidity 72    
Precipitation  
Precipitation 0.23 in 0.04 in 0.38 in (2004)
Month to date precipitation 0.28 0.92  
Year to date precipitation 3.31 12.43  
Since 1 July precipitation 0.52  
Snow  
Snow 0.00 in - - ()
Month to date snowfall 0.0  
Year to date snowfall 0.0  
Snow Depth 0.00 in    
Sea Level Pressure  
Sea Level Pressure 29.86 in    
Wind  
Wind Speed 7 mph (SSE)    
Max Wind Speed 15 mph    
Max Gust Speed 29 mph    
Visibility 6 miles    
Events Fog , Rain    
T = Trace of Precipitation, MM = Missing Value Source: NWS Daily Summary

Daily Weather History Graph

Daily Weather History Graph

Search for Another Location

Airport or City:

Trip Planner

Search our weather history database for the weather conditions in past years. The results will help you decide how hot, cold, wet, or windy it might be!

Date:

Astronomy

Nov. 21, 2013 Rise Set
Actual Time 6:28 AM PST 4:43 PM PST
Civil Twilight 6:02 AM PST 5:10 PM PST
Nautical Twilight 5:31 AM PST 5:40 PM PST
Astronomical Twilight 5:01 AM PST 6:10 PM PST
Moon 8:22 PM PST (11/21) 9:39 AM PST (11/21)
Length of Visible Light 11h 08m
Length of Day
10h 14m
Waning Gibbous, 84% of the Moon is Illuminated
Nov 21
Waning Gibbous
Nov 25
Last Quarter
Dec 2
New
Dec 9
First Quarter
Dec 17
Full

Hourly Weather History & Observations

Time (PST) Temp. Dew Point Humidity Pressure Visibility Wind Dir Wind Speed Gust Speed Precip Events Conditions
12:08 AM 55.4 °F 53.6 °F 94% 29.89 in 4.0 mi Calm Calm - 0.00 in Rain Light Rain
12:17 AM 55.4 °F 53.6 °F 94% 29.89 in 4.0 mi Calm Calm - 0.00 in Rain Light Rain
12:53 AM 55.9 °F 54.0 °F 93% 29.87 in 4.0 mi Calm Calm - 0.01 in Rain Light Rain
1:48 AM 55.4 °F 53.6 °F 94% 29.87 in 3.0 mi East 3.5 mph - 0.01 in Rain Light Rain
1:53 AM 55.9 °F 54.0 °F 93% 29.86 in 3.0 mi East 3.5 mph - 0.01 in Rain Light Rain
2:24 AM 55.4 °F 55.4 °F 100% 29.86 in 2.5 mi East 4.6 mph - 0.01 in Rain Light Rain
2:53 AM 55.9 °F 55.0 °F 97% 29.85 in 2.5 mi East 3.5 mph - 0.05 in Rain Rain
3:53 AM 55.9 °F 54.0 °F 93% 29.84 in 4.0 mi NE 4.6 mph - 0.01 in   Overcast
4:53 AM 55.9 °F 54.0 °F 93% 29.83 in 3.0 mi NNE 6.9 mph - 0.02 in Rain Light Rain
5:53 AM 55.9 °F 55.0 °F 97% 29.84 in 4.0 mi NE 5.8 mph - 0.01 in Rain Light Rain
6:23 AM 57.2 °F 55.4 °F 94% 29.85 in 2.0 mi NE 4.6 mph - 0.01 in Rain Rain
6:36 AM 57.2 °F 55.4 °F 94% 29.85 in 2.0 mi NE 3.5 mph - 0.02 in Rain Light Rain
6:53 AM 57.0 °F 55.0 °F 93% 29.85 in 2.0 mi NE 3.5 mph - 0.02 in Rain Light Rain
7:04 AM 57.2 °F 55.4 °F 94% 29.86 in 2.0 mi NE 3.5 mph - 0.00 in Rain Light Rain
7:26 AM 57.2 °F 55.4 °F 94% 29.86 in 2.0 mi Calm Calm - 0.02 in Rain Light Rain
7:36 AM 57.2 °F 55.4 °F 94% 29.87 in 2.0 mi Calm Calm - 0.03 in Rain Light Rain
7:53 AM 57.0 °F 55.9 °F 96% 29.86 in 2.0 mi Calm Calm - 0.03 in   Overcast
8:29 AM 57.2 °F 55.4 °F 94% 29.87 in 1.2 mi Calm Calm - 0.01 in Rain Light Rain
8:53 AM 57.0 °F 55.9 °F 96% 29.86 in 2.0 mi South 3.5 mph - 0.02 in Rain Light Rain
9:05 AM 57.2 °F 55.4 °F 94% 29.87 in 2.0 mi SSE 4.6 mph - 0.01 in Rain Light Rain
9:22 AM 57.2 °F 55.4 °F 94% 29.87 in 3.0 mi South 3.5 mph - 0.05 in Rain Rain
9:40 AM 57.2 °F 57.2 °F 100% 29.87 in 5.0 mi South 3.5 mph - 0.05 in   Overcast
9:53 AM 57.9 °F 57.0 °F 97% 29.86 in 5.0 mi Calm Calm - 0.05 in Fog Overcast
10:35 AM 60.8 °F 57.2 °F 88% 29.87 in 6.0 mi SSW 6.9 mph - 0.00 in Rain Light Rain
10:53 AM 60.1 °F 57.0 °F 90% 29.85 in 7.0 mi SSW 10.4 mph - 0.00 in   Overcast
11:53 AM 61.0 °F 55.9 °F 83% 29.84 in 10.0 mi WSW 6.9 mph - N/A   Overcast
12:26 PM 60.8 °F 55.4 °F 82% 29.84 in 10.0 mi WSW 8.1 mph - N/A   Overcast
12:53 PM 61.0 °F 54.0 °F 78% 29.82 in 10.0 mi WSW 9.2 mph - N/A   Overcast
1:53 PM 62.1 °F 54.0 °F 75% 29.81 in 10.0 mi WSW 12.7 mph - N/A   Mostly Cloudy
2:53 PM 61.0 °F 53.1 °F 75% 29.83 in 10.0 mi SW 10.4 mph 16.1 mph N/A   Mostly Cloudy
3:53 PM 60.1 °F 52.0 °F 75% 29.84 in 10.0 mi SW 11.5 mph - N/A   Mostly Cloudy
4:53 PM 57.9 °F 51.1 °F 78% 29.85 in 10.0 mi WSW 6.9 mph - N/A   Mostly Cloudy
5:06 PM 57.2 °F 51.8 °F 82% 29.86 in 10.0 mi West 5.8 mph 84.0 mph N/A   Squalls
5:53 PM 57.9 °F 52.0 °F 81% 29.86 in 10.0 mi SW 8.1 mph - N/A   Mostly Cloudy
6:53 PM 57.0 °F 52.0 °F 83% 29.87 in 10.0 mi West 5.8 mph - 0.01 in   Mostly Cloudy
7:53 PM 55.9 °F 51.1 °F 84% 29.88 in 10.0 mi West 4.6 mph - N/A   Mostly Cloudy
8:53 PM 55.9 °F 51.1 °F 84% 29.88 in 10.0 mi Calm Calm - N/A   Mostly Cloudy
9:53 PM 55.0 °F 50.0 °F 83% 29.88 in 10.0 mi NE 3.5 mph - N/A   Mostly Cloudy
10:53 PM 54.0 °F 48.9 °F 83% 29.88 in 10.0 mi ESE 6.9 mph - N/A   Overcast
11:53 PM 55.0 °F 46.9 °F 74% 29.86 in 10.0 mi ESE 3.5 mph - N/A   Mostly Cloudy